New York JFK, NY

11:56 PM EDT on April 24, 2017 (GMT -0400)
Kennedy International

Weather History for KJFK - November, 2013

Change the Weather History Date:

Sunday, November 10, 2013

  Actual Average Record
Temperature  
Mean Temperature 53 °F 49 °F  
Max Temperature 62 °F 56 °F 72 °F (1999)
Min Temperature 44 °F 42 °F 28 °F (2004)
Degree Days  
Heating Degree Days 12 16  
Month to date heating degree days 140 144  
Since 1 July heating degree days 371 443  
Cooling Degree Days 0 0  
Month to date cooling degree days 0 0  
Year to date cooling degree days 1111 1005  
Growing Degree Days 3 (Base 50)    
Moisture  
Dew Point 32 °F    
Average Humidity 48    
Maximum Humidity 66    
Minimum Humidity 30    
Precipitation  
Precipitation T in 0.10 in 2.33 in (2000)
Month to date precipitation 0.20 1.05  
Year to date precipitation 28.64 37.13  
Snow  
Snow 0.00 in 0.00 in - ()
Month to date snowfall 0.0 0.0  
Since 1 July snowfall 0.0 0.0  
Snow Depth 0.00 in    
Sea Level Pressure  
Sea Level Pressure 29.95 in    
Wind  
Wind Speed 17 mph (West)    
Max Wind Speed 32 mph    
Max Gust Speed 40 mph    
Visibility 10 miles    
Events Rain    
T = Trace of Precipitation, MM = Missing Value Source: NWS Daily Summary

Daily Weather History Graph

Daily Weather History Graph

Search for Another Location

Airport or City:

Trip Planner

Search our weather history database for the weather conditions in past years. The results will help you decide how hot, cold, wet, or windy it might be!

Date:

Astronomy

Nov. 10, 2013 Rise Set
Actual Time 6:36 AM EST 4:41 PM EST
Civil Twilight 6:07 AM EST 5:10 PM EST
Nautical Twilight 5:34 AM EST 5:43 PM EST
Astronomical Twilight 5:02 AM EST 6:15 PM EST
Moon 12:47 PM EST (11/10) No Moon Set
Length of Visible Light 11h 03m
Length of Day
10h 05m
First Quarter, 55% of the Moon is Illuminated
Nov 10
First Quarter
Nov 17
Full
Nov 25
Last Quarter
Dec 2
New
Dec 9
First Quarter

Hourly Weather History & Observations

Time (EST) Temp. Windchill Dew Point Humidity Pressure Visibility Wind Dir Wind Speed Gust Speed Precip Events Conditions
12:51 AM 48.0 °F - 36.0 °F 63% 30.00 in 10.0 mi SW 13.8 mph - N/A   Scattered Clouds
1:51 AM 48.0 °F - 36.0 °F 63% 29.98 in 10.0 mi SW 10.4 mph - N/A   Mostly Cloudy
2:51 AM 48.0 °F - 37.0 °F 66% 29.96 in 10.0 mi WSW 13.8 mph - N/A   Mostly Cloudy
3:51 AM 48.0 °F - 35.1 °F 61% 29.94 in 10.0 mi WSW 12.7 mph - N/A   Overcast
4:51 AM 46.0 °F 40.2 °F 36.0 °F 68% 29.94 in 10.0 mi WSW 12.7 mph - N/A   Scattered Clouds
5:51 AM 46.0 °F 39.9 °F 34.0 °F 63% 29.93 in 10.0 mi WSW 13.8 mph - N/A   Scattered Clouds
6:51 AM 44.1 °F 38.6 °F 34.0 °F 68% 29.93 in 10.0 mi WSW 10.4 mph - N/A   Partly Cloudy
7:51 AM 46.9 °F - 35.1 °F 63% 29.93 in 10.0 mi WSW 13.8 mph - N/A   Partly Cloudy
8:51 AM 48.9 °F - 36.0 °F 61% 29.92 in 10.0 mi WSW 15.0 mph - N/A   Partly Cloudy
9:51 AM 53.1 °F - 37.0 °F 55% 29.90 in 10.0 mi WSW 12.7 mph - N/A   Scattered Clouds
10:51 AM 60.1 °F - 33.1 °F 36% 29.87 in 10.0 mi West 15.0 mph 20.7 mph N/A   Scattered Clouds
11:51 AM 62.1 °F - 30.0 °F 30% 29.84 in 10.0 mi West 23.0 mph 31.1 mph N/A   Mostly Cloudy
12:51 PM 61.0 °F - 32.0 °F 34% 29.83 in 10.0 mi WSW 27.6 mph 36.8 mph N/A   Mostly Cloudy
1:51 PM 59.0 °F - 28.9 °F 32% 29.84 in 10.0 mi West 31.1 mph 40.3 mph N/A   Mostly Cloudy
2:51 PM 52.0 °F - 37.0 °F 57% 29.90 in 10.0 mi NW 25.3 mph 36.8 mph 0.00 in Rain Light Rain
3:51 PM 52.0 °F - 33.1 °F 49% 29.93 in 10.0 mi WNW 16.1 mph 26.5 mph 0.00 in   Mostly Cloudy
4:51 PM 50.0 °F - 33.1 °F 52% 29.95 in 10.0 mi WNW 16.1 mph 27.6 mph N/A   Scattered Clouds
5:51 PM 50.0 °F - 32.0 °F 50% 29.98 in 10.0 mi WNW 16.1 mph 23.0 mph N/A   Scattered Clouds
6:51 PM 52.0 °F - 28.0 °F 40% 30.00 in 10.0 mi WNW 20.7 mph 27.6 mph N/A   Mostly Cloudy
7:51 PM 52.0 °F - 26.1 °F 37% 30.01 in 10.0 mi West 19.6 mph 28.8 mph N/A   Mostly Cloudy
8:51 PM 52.0 °F - 26.1 °F 37% 30.03 in 10.0 mi West 18.4 mph 33.4 mph N/A   Mostly Cloudy
9:51 PM 52.0 °F - 25.0 °F 35% 30.04 in 10.0 mi West 19.6 mph 32.2 mph N/A   Mostly Cloudy
10:51 PM 50.0 °F - 25.0 °F 38% 30.05 in 10.0 mi West 19.6 mph 27.6 mph N/A   Mostly Cloudy
11:51 PM 50.0 °F - 25.0 °F 38% 30.06 in 10.0 mi WNW 21.9 mph 31.1 mph N/A   Mostly Cloudy